EW1186 Weather Reports


time (UTC)temp
C
wind
direction
speed
KPH
gust
KPH
rain 1hr
cm
rain 24hr
cm
rain mn
cm
humidity
%
barometer
mb
20260505001523 22 360 0.0 4.8 0.00 0.00 0.00 40 1013.5
20260505000119 23 92 0.0 0.0 0.00 0.00 0.00 40 1013.3
20260504234529 23 106 0.0 1.6 0.00 0.00 0.00 35 1013.1
20260504233125 24 196 0.0 4.8 0.00 0.00 0.00 34 1013.0
20260504231555 24 209 0.0 9.7 0.00 0.00 0.00 33 1013.0
20260504230019 25 215 0.0 11.3 0.00 0.00 0.00 31 1012.9
20260504224611 26 209 3.2 12.9 0.00 0.00 0.00 29 1012.8
20260504223035 26 225 0.0 11.3 0.00 0.00 0.00 30 1012.8
20260504221622 26 179 4.8 11.3 0.00 0.00 0.00 28 1012.9
20260504220041 26 185 6.4 20.9 0.00 0.00 0.00 28 1012.9
20260504214633 27 219 1.6 9.7 0.00 0.00 0.00 30 1012.9
20260504213053 26 196 3.2 12.9 0.00 0.00 0.00 29 1012.9
20260504211511 26 167 1.6 16.1 0.00 0.00 0.00 31 1012.9
20260504210112 27 234 3.2 14.5 0.00 0.00 0.00 29 1013.1
20260504204528 26 181 4.8 14.5 0.00 0.00 0.00 30 1013.3
20260504203124 27 160 3.2 17.7 0.00 0.00 0.00 32 1013.4
20260504201549 26 254 1.6 14.5 0.00 0.00 0.00 35 1013.6
20260504200012 27 163 3.2 12.9 0.00 0.00 0.00 33 1013.8
20260504194607 26 198 1.6 9.7 0.00 0.00 0.00 32 1013.9
20260504193027 26 173 3.2 9.7 0.00 0.00 0.00 33 1014.0
20260504191511 26 305 1.6 9.7 0.00 0.00 0.00 34 1014.3
20260504190049 26 208 1.6 9.7 0.00 0.00 0.00 32 1014.5
20260504184545 26 313 4.8 12.9 0.00 0.00 0.00 33 1014.5
20260504183041 26 200 0.0 9.7 0.00 0.00 0.00 35 1014.7
20260504181539 26 161 3.2 11.3 0.00 0.00 0.00 33 1014.9
20260504180038 25 175 0.0 8.0 0.00 0.00 0.00 34 1014.8
20260504174534 26 167 0.0 9.7 0.00 0.00 0.00 37 1015.2
20260504173033 25 227 1.6 14.5 0.00 0.00 0.00 34 1015.2
20260504171543 25 232 1.6 9.7 0.00 0.00 0.00 36 1015.3
20260504090105 4 223 0.0 0.0 0.00 0.03 0.00 88 1016.9
20260504081550 4 223 0.0 0.0 0.00 0.03 0.00 88 1016.7
20260504044526 6 223 0.0 0.0 0.00 0.03 0.00 81 1017.0
20260504043037 6 223 0.0 0.0 0.00 0.03 0.00 81 1017.1
20260504041523 6 223 0.0 0.0 0.00 0.03 0.00 81 1017.1
20260504040024 7 223 0.0 0.0 0.00 0.03 0.00 81 1017.1
20260504034519 7 223 0.0 0.0 0.00 0.03 0.03 80 1017.2
20260504033019 7 223 0.0 0.0 0.00 0.03 0.03 80 1017.2
20260504031518 7 223 0.0 0.0 0.00 0.03 0.03 79 1017.2
20260504030017 8 223 0.0 0.0 0.00 0.03 0.03 79 1017.2
20260504024517 8 223 0.0 0.0 0.00 0.03 0.03 77 1017.0
20260504023019 8 223 0.0 0.0 0.00 0.03 0.03 75 1016.9
20260504021515 9 223 0.0 0.0 0.00 0.03 0.03 74 1016.8
20260504020015 10 223 0.0 0.0 0.00 0.03 0.03 72 1016.6
20260504014515 11 223 0.0 0.0 0.00 0.03 0.03 70 1016.5
20260504013018 11 223 0.0 0.0 0.00 0.03 0.03 68 1016.3
20260504011520 12 223 0.0 0.0 0.00 0.03 0.03 65 1016.3
20260504010014 13 223 0.0 0.0 0.00 0.03 0.03 62 1016.0
20260504004514 14 223 0.0 0.0 0.00 0.03 0.03 59 1015.8
20260504003012 15 223 0.0 0.0 0.00 0.03 0.03 56 1015.7